Location: The Saddle
(36.8333°N, 80.3417°W)
Time: 10:18:17
(UTC-04:00)

METEOR M2 - Visible Passes

Search period start: 21 March 2023 00:00
Search period end: 31 March 2023 00:00
Orbit: 819 x 826 km, 98.4° (Epoch: 21 March)

Date Brightness Start Highest point End Pass type
(mag) Time Alt. Az. Time Alt. Az. Time Alt. Az.
21 Mar ? 20:29:10 10° WSW 20:31:28 13° W 20:33:47 10° WNW visible
22 Mar ? 20:07:23 10° SW 20:11:17 20° W 20:15:13 10° NW visible
23 Mar ? 06:46:28 10° NE 06:50:38 23° E 06:54:46 10° SE visible
24 Mar ? 06:27:37 10° ENE 06:30:27 14° E 06:33:18 10° ESE visible
26 Mar ? 20:29:32 10° WSW 20:31:43 12° W 20:33:55 10° WNW visible
27 Mar ? 20:07:40 10° SW 20:11:32 20° W 20:15:24 10° NW visible
28 Mar ? 06:46:40 10° NE 06:50:53 23° E 06:55:03 10° SSE visible
29 Mar ? 06:27:47 10° ENE 06:30:42 15° E 06:33:36 10° SE visible
